This is the latest recevied weather packets stored in our database for station/object 9W2XPF-13. If no packets are shown the sender has not sent any weather packets the latest 10 day(s).
| Time | Temp. | Humidity | Pressure | Rain* | Wind** | Luminosity | Snow |
|---|---|---|---|---|---|---|---|
| 1777089242 | 33.33° C | 69% | 1009.4 hPa | 0 mm | - | - | - |
| 1777089122 | 33.33° C | 68% | 1009.2 hPa | 0 mm | - | - | - |
| 1777089002 | 33.89° C | 67% | 1009.2 hPa | 0 mm | - | - | - |
| 1777088882 | 33.89° C | 68% | 1009.4 hPa | 0 mm | - | - | - |
| 1777088762 | 33.33° C | 69% | 1009.4 hPa | 0 mm | - | - | - |
| 1777088642 | 33.33° C | 69% | 1009.5 hPa | 0 mm | - | - | - |
| 1777088522 | 32.78° C | 72% | 1009.4 hPa | 0 mm | - | - | - |
| 1777088402 | 32.78° C | 71% | 1009.3 hPa | 0 mm | - | - | - |
| 1777088282 | 32.78° C | 72% | 1009.5 hPa | 0 mm | - | - | - |
| 1777088162 | 32.22° C | 70% | 1009.7 hPa | 0 mm | - | - | - |
| 1777088043 | 32.22° C | 71% | 1009.6 hPa | 0 mm | - | - | - |
| 1777087922 | 32.22° C | 71% | 1009.8 hPa | 0 mm | - | - | - |
| 1777087802 | 32.22° C | 71% | 1009.7 hPa | 0 mm | - | - | - |
| 1777087682 | 32.78° C | 73% | 1009.6 hPa | 0 mm | - | - | - |
| 1777087562 | 32.78° C | 71% | 1009.8 hPa | 0 mm | - | - | - |
| 1777087442 | 32.78° C | 72% | 1009.6 hPa | 0 mm | - | - | - |
| 1777087322 | 32.78° C | 72% | 1009.8 hPa | 0 mm | - | - | - |
| 1777087202 | 32.22° C | 73% | 1009.8 hPa | 0 mm | - | - | - |
| 1777087083 | 32.22° C | 74% | 1009.6 hPa | 0 mm | - | - | - |
| 1777086962 | 32.22° C | 73% | 1009.9 hPa | 0 mm | - | - | - |
| 1777086842 | 32.22° C | 73% | 1009.7 hPa | 0 mm | - | - | - |
| 1777086722 | 31.67° C | 74% | 1009.9 hPa | 0 mm | - | - | - |
| 1777086602 | 31.67° C | 76% | 1009.7 hPa | 0 mm | - | - | - |
| 1777086482 | 31.67° C | 75% | 1009.9 hPa | 0 mm | - | - | - |
| 1777086362 | 31.67° C | 75% | 1009.9 hPa | 0 mm | - | - | - |
* Rain latest hour (hover to see other rain measurements)
** Current wind speed in m/s (hover to see current wind gust speed)